TimeEST,TemperatureF,Dew PointF,Humidity,Sea Level PressureIn,VisibilityMPH,Wind Direction,Wind SpeedMPH,Gust SpeedMPH,PrecipitationIn,Events,Conditions,WindDirDegrees,DateUTC
12:56 AM,59.0,48.0,67,29.99,10.0,SSW,4.6,-,N/A,,Clear,200,2012-11-04 04:56:00
1:56 AM,59.0,48.9,69,29.99,10.0,SSW,6.9,-,N/A,,Clear,210,2012-11-04 05:56:00
1:56 AM,55.9,48.9,77,29.98,10.0,SW,5.8,-,N/A,,Clear,220,2012-11-04 06:56:00
2:56 AM,55.9,48.9,77,29.97,10.0,SSW,5.8,-,N/A,,Clear,210,2012-11-04 07:56:00
3:56 AM,60.1,52.0,75,29.94,10.0,SW,9.2,-,N/A,,Clear,230,2012-11-04 08:56:00
4:56 AM,59.0,52.0,78,29.96,10.0,WSW,6.9,-,N/A,,Clear,240,2012-11-04 09:56:00
5:56 AM,57.9,52.0,81,29.97,10.0,West,4.6,-,N/A,,Clear,260,2012-11-04 10:56:00
6:56 AM,53.1,50.0,89,30.00,9.0,NNW,3.5,-,N/A,,Clear,340,2012-11-04 11:56:00
7:28 AM,53.6,48.2,82,30.02,10.0,North,5.8,-,N/A,,Partly Cloudy,10,2012-11-04 12:28:00
7:56 AM,54.0,46.0,75,30.02,10.0,North,5.8,-,N/A,,Clear,10,2012-11-04 12:56:00
8:56 AM,57.0,44.1,62,30.01,10.0,NNE,5.8,-,N/A,,Clear,20,2012-11-04 13:56:00
9:56 AM,60.1,45.0,57,30.01,10.0,Calm,Calm,-,N/A,,Clear,0,2012-11-04 14:56:00
10:56 AM,64.9,48.9,56,29.99,10.0,SSW,3.5,-,N/A,,Clear,210,2012-11-04 15:56:00
11:56 AM,71.1,54.0,55,29.96,10.0,WSW,4.6,-,N/A,,Clear,250,2012-11-04 16:56:00
12:56 PM,75.9,55.0,48,29.93,10.0,WSW,11.5,18.4,N/A,,Partly Cloudy,240,2012-11-04 17:56:00
1:56 PM,75.0,54.0,48,29.92,10.0,WSW,11.5,-,N/A,,Clear,250,2012-11-04 18:56:00
2:56 PM,73.9,53.1,48,29.92,10.0,West,13.8,24.2,N/A,,Partly Cloudy,260,2012-11-04 19:56:00
3:56 PM,73.0,46.0,38,29.92,10.0,West,13.8,21.9,N/A,,Scattered Clouds,270,2012-11-04 20:56:00
4:56 PM,66.0,50.0,56,29.94,10.0,WNW,4.6,-,0.00,,Scattered Clouds,290,2012-11-04 21:56:00
5:56 PM,63.0,51.1,65,29.94,10.0,Calm,Calm,-,N/A,,Clear,0,2012-11-04 22:56:00
6:56 PM,63.0,51.1,65,29.96,10.0,West,4.6,-,N/A,,Clear,260,2012-11-04 23:56:00
7:56 PM,60.1,52.0,75,29.96,10.0,WSW,5.8,-,N/A,,Clear,250,2012-11-05 00:56:00
8:56 PM,59.0,52.0,78,29.96,10.0,West,3.5,-,N/A,,Clear,280,2012-11-05 01:56:00
9:56 PM,54.0,51.1,90,29.97,10.0,Calm,Calm,-,N/A,,Clear,0,2012-11-05 02:56:00
10:56 PM,52.0,48.0,86,29.96,10.0,NNE,5.8,-,N/A,,Clear,30,2012-11-05 03:56:00